• Join FlightAware (Why Join?)
  • Login
  • US Flag 
01:43PM EDT


 

Airport Tracker/Info


-or-


 

Live Flight TrackerFlight Track Log ✈ N724HS ✈ 22-Jun-2014 ✈ MYCH - KFLL

Flight Track Log - Related Links

Times and Time Zones

All times are in EDT time to prevent confusion due to time zone crossing. See the N724HS flight status page for this flight to view local times or setup timezone preferences in your user account.

Time Position Orientation Groundspeed Altitude Reporting Facility
EDT Latitude Longitude Course Direction KTS MPH feet Rate Location/Type
04:08PM 24.3172 -75.8136 294° West 185 213 9,100  Level Miami Center
04:09PM 24.3386 -75.8656 294° West 185 213 10,300 1,140 Climbing Miami Center
04:10PM 24.3603 -75.9178 294° West 185 213 11,500 960 Climbing Miami Center
04:11PM 24.3811 -75.9686 294° West 185 213 12,400 960 Climbing Miami Center
04:12PM 24.4086 -76.0325 295° West 187 215 13,500 960 Climbing Miami Center
04:13PM 24.4311 -76.0869 294° West 190 219 14,400 720 Climbing Miami Center
04:14PM 24.3016 -75.8789 294° West  Level FlightAware Approximate
04:14PM 24.4542 -76.1417 295° West 192 221 15,100  Level Miami Center
04:16PM 24.4778 -76.1981 295° West 195 224 15,800 420 Climbing Miami Center
04:17PM 24.5019 -76.2556 295° West 202 232 16,000 60 Climbing Miami Center
04:18PM 24.5292 -76.3206 295° West 215 247 16,000  Level Miami Center
04:19PM 24.5628 -76.4025 294° West 232 267 16,000  Level Miami Center
04:20PM 24.5914 -76.4719 294° West 241 277 16,000  Level Miami Center
04:21PM 24.6197 -76.5406 294° West 242 278 16,000  Level Miami Center
04:22PM 24.6481 -76.6092 294° West 243 280 16,000  Level Miami Center
04:23PM 24.6772 -76.6783 295° West 244 281 16,000  Level Miami Center
04:24PM 24.7053 -76.7483 294° West 245 282 16,000  Level Miami Center
04:25PM 24.7389 -76.8319 294° West 246 283 16,000  Level Miami Center
04:26PM 24.7681 -76.9011 295° West 246 283 16,000  Level Miami Center
04:27PM 24.7947 -76.9708 293° West 246 283 16,000  Level Miami Center
04:28PM 24.8236 -77.0397 295° West 246 283 16,000  Level Miami Center
04:29PM 24.8644 -77.1053 304° West 251 289 16,000  Level Miami Center
04:30PM 24.9183 -77.1569 319° Northwest 253 291 16,000  Level Miami Center
04:31PM 24.9814 -77.2192 318° Northwest 253 291 16,000  Level Miami Center
04:32PM 25.0328 -77.2744 316° Northwest 253 291 16,000  Level Miami Center
04:33PM 25.0814 -77.3303 314° West 253 291 16,000  Level Miami Center
04:34PM 25.1283 -77.3872 312° West 253 291 16,000  Level Miami Center
04:35PM 25.1592 -77.4561 296° West 248 285 16,000  Level Miami Center
04:36PM 25.1908 -77.5247 297° West 248 285 16,000  Level Miami Center
04:37PM 25.2353 -77.6019 302° West 248 285 16,000  Level Miami Center
04:38PM 25.2744 -77.6664 304° West 248 285 16,000  Level Miami Center
04:39PM 25.3086 -77.7328 300° West 248 285 16,000  Level Miami Center
04:40PM 25.3264 -77.8064 285° West 244 281 16,000  Level Miami Center
04:41PM 25.3461 -77.8778 287° West 245 282 16,000  Level Miami Center
04:42PM 25.3686 -77.9494 289° West 245 282 16,000  Level Miami Center
04:43PM 25.3906 -78.0211 289° West 245 282 16,000  Level Miami Center
04:45PM 25.4175 -78.1086 289° West 246 283 16,000  Level Miami Center
04:46PM 25.4419 -78.1797 291° West 246 283 16,000  Level Miami Center
04:47PM 25.4542 -78.2558 280° West 243 280 16,000  Level Miami Center
04:48PM 25.4769 -78.3239 290° West 244 281 16,000  Level Miami Center
04:49PM 25.5019 -78.3958 291° West 247 284 16,000  Level Miami Center
04:50PM 25.5275 -78.4822 288° West 247 284 16,000 -120 Level Miami Center
04:51PM 25.5458 -78.5536 286° West 247 284 15,800 -600 Descending Miami Center
04:52PM 25.5678 -78.6258 289° West 247 284 14,800 -1,020 Descending Miami Center
04:53PM 25.5892 -78.6972 288° West 247 284 13,800 -960 Descending Miami Center
04:54PM 25.6089 -78.7653 288° West 241 277 12,900 -1,020 Descending Miami Center
04:55PM 25.6317 -78.8469 287° West 237 273 11,700 -900 Descending Miami Center
04:56PM 25.6497 -78.9150 286° West 237 273 11,100 -300 Descending Miami Center
04:57PM 25.6694 -78.9747 290° West 222 255 11,100  Level Miami Center
04:58PM 25.6817 -79.0292 284° West 201 231 11,100  Level Miami Center
04:59PM 25.6928 -79.0844 283° West 191 220 11,100  Level Miami Center
05:00PM 25.6936 -79.1400 271° West 186 214 11,100  Level Miami Center
05:01PM 25.6983 -79.2061 275° West 185 213 11,100 -60 Level Miami Center
05:02PM 25.7017 -79.2625 274° West 184 212 11,000 -60 Descending Miami Center
05:03PM 25.7200 -79.3108 293° West 182 209 11,000  Level Miami Center
05:04PM 25.7508 -79.2669 52° Northeast 207 238 11,000  Level Miami Center
05:05PM 25.7500 -79.2022 91° East 207 238 11,000  Level Miami Center
05:06PM 25.7578 -79.1214 84° East 221 254 11,000 -540 Level Miami Center
05:07PM 25.7125 -79.0811 141° Southeast 250 288 9,900 -1,260 Descending Miami Center
05:08PM 25.6936 -79.1403 251° West 236 272 8,500 -1,200 Descending Miami Center
05:09PM 25.7175 -79.2067 292° West 233 268 7,500 -780 Descending Miami Center
05:10PM 25.7367 -79.2675 289° West 215 247 6,900 -600 Descending Miami Center
05:11PM 25.7572 -79.3319 290° West 221 254 6,300 -660 Descending Miami Center
05:13PM 25.7822 -79.4119 289° West 227 261 5,600 -660 Descending Miami Center
05:13PM 25.7942 -79.4528 288° West 229 264 5,300 -600 Descending Miami Center
05:14PM 25.8028 -79.4794 290° West 228 262 5,000 -600 Descending Miami Center
05:14PM 25.8006 -79.5203 267° West 235 270 4,700 -540 Descending Miami Center
05:15PM 25.7833 -79.5394 225° Southwest 230 265 4,500 -600 Descending Miami Center
05:15PM 25.7578 -79.5728 230° Southwest 228 262 4,100 -540 Descending Miami Center
05:16PM 25.7631 -79.5975 283° West 234 269 4,000 -120 Descending Miami Center
05:16PM 25.7953 -79.6147 334° Northwest 216 249 4,000  Level Miami Center
05:17PM 25.8183 -79.6219 344° North 215 247 4,000 -540 Level Miami Center
05:17PM 25.8525 -79.6372 338° Northwest 228 262 3,500 -780 Descending Miami Center
05:18PM 25.8639 -79.6622 297° West 231 266 3,200 -540 Descending Miami Center
05:18PM 25.8819 -79.7042 296° West 229 264 3,000 -240 Descending Miami Center
05:19PM 25.8958 -79.7369 295° West 227 261 3,000  Level Miami Center
05:19PM 25.9078 -79.7639 296° West 210 242 3,000  Level Miami Center
05:20PM 25.9208 -79.7947 295° West 213 245 3,000  Level Miami Center
05:20PM 25.9314 -79.8236 292° West 202 232 3,000  Level Miami Center
05:21PM 25.9417 -79.8525 292° West 204 235 3,000  Level Miami Center
05:21PM 25.9467 -79.8828 280° West 199 229 3,000  Level Miami Center
05:22PM 25.9547 -79.9117 287° West 203 234 3,000  Level Miami Center
05:22PM 25.9614 -79.9508 281° West 201 231 3,000  Level Miami Center
05:23PM 25.9692 -79.9706 294° West 201 231 3,000  Level Miami Center
05:23PM 25.9811 -80.0081 290° West 199 229 3,000  Level Miami Center
05:24PM 25.9936 -80.0383 295° West 200 230 3,000  Level Miami Center
05:24PM 26.0008 -80.0581 292° West 195 224 3,000  Level Miami Center
05:25PM 25.9981 -80.0953 265° West 189 217 3,000  Level Miami Center
05:25PM 25.9953 -80.1156 261° West 182 209 3,000  Level Miami Center
05:26PM 25.9933 -80.1517 267° West 188 216 3,000  Level Miami Center
05:26PM 25.9897 -80.1733 260° West 180 207 3,000  Level Miami Center
05:27PM 25.9889 -80.2064 268° West 182 209 3,000  Level Miami Center
05:27PM 25.9883 -80.2286 268° West 177 204 3,000 -300 Level Miami Center
05:28PM 25.9953 -80.2597 284° West 179 206 2,700 -900 Descending Miami Center
05:28PM 26.0083 -80.2767 311° West 179 206 2,100 -720 Descending Miami Center
05:29PM 26.0475 -80.2831 352° North 183 211 2,000 -300 Descending Miami Center
05:29PM 26.0583 -80.2806 12° North 173 199 1,800 -540 Descending Miami Center
05:30PM 26.0783 -80.2511 53° Northeast 164 189 1,500 -540 Descending Miami Center
05:30PM 26.0775 -80.2403 95° East 137 158 1,300 -720 Descending Miami Center
05:31PM 26.0769 -80.2119 91° East 128 147 800 -720 Descending Miami Center
05:31PM 26.0758 -80.2031 98° East 117 135 600 -720 Descending Miami Center
05:32PM 26.0769 -80.1717 88° East 121 139 100 5,520 Descending Miami Center
05:33PM 26.0761 -80.1422 92° East 119 137 11,000 10,500 Climbing Miami Center
05:35PM 26.0726 -80.1527 242° Southwest  Level Estimated